Погода в Либерии

Коста-Рика     10°37′37″N   85°26′37″W
темп.,
°C
ветер,
м/с
пор.,
м/с
влажн.,
%
обл.,
%
осадки,
мм/ч
давл.,
гПа
погр.,
м
15 августа, пн
пн1500:00+22в229384 0.1 101354
03:00+21в119464 0.0 101124
06:00+22св119110 0.0 101121
09:00+27ю127216 0.0 1012825
12:00+27юз227745 1.4 1011664
15:00+25зсз239099 7.7 1009127
18:00+23с1195100 11.9 101041
21:00+22вюв119499 0.6 101319
16 августа, вт
вт1600:00+22вюв2396100 0.8 101286
03:00+21вюв2296100 0.0 101166
06:00+22в2494100 0.0 1012123
09:00+25вюв3485100 1.6 1013427
12:00+25юв1183100 3.9 1012489
15:00+25ссв1183100 2.8 1010238
18:00+22св229198 4.9 101146
21:00+22св229053 0.1 101326
17 августа, ср
ср1700:00+21всв228996 0.1 101219
03:00+21св228994 0.0 101122
06:00+21св229087 0.0 101144
09:00+26ю127780 0.0 1013733
12:00+27ю237779 0.8 1012830
15:00+27юз338088 4.1 1010628
18:00+24ююз019398 7.9 101218
21:00+23всв1194100 0.1 101322
18 августа, чт
чт1800:00+22св119467 0.1 101216
03:00+22св119363 0.0 101119
06:00+22св119322 0.0 101126
09:00+27вюв027582 0.0 1012878
12:00+30ю136345 0.6 10101248
15:00+29зсз237197 1.6 1008761
18:00+25св1186100 1.9 100932
21:00+23св338838 0.0 101171
19 августа, пт
пт1900:00+22всв2389100 0.0 101154
03:00+22всв239158 0.0 100960
06:00+22всв129268 0.0 101047
09:00+27юв247181 0.0 1011955
12:00+29вюв1367100 2.1 1010995
15:00+26ссв1283100 5.4 1009261
18:00+24с0188100 6.1 101033
21:00+23св1289100 0.1 101230